�N����,����,�~����,�C��,���x,�C��,����,���ϕ���,�ő�u�ԕ���,�ő厞����,���˗�,�I�_���x,�n�����x,�ő啗���N��,DTYPE
"18/10/31","00:10",0.0,9.3,91.0,1012.6,309.0,1.3,1.9,315.8,0.00,7.9,14.6,"00:09:20",1
"18/10/31","00:20",0.0,9.3,91.1,1012.8,288.1,1.0,1.8,263.0,0.00,8.0,14.5,"00:14:24",1
"18/10/31","00:30",0.0,9.8,91.3,1012.3,314.9,1.6,2.7,324.2,0.00,8.5,14.5,"00:26:48",1
"18/10/31","00:40",0.0,10.0,90.1,1012.3,335.0,1.7,2.9,333.7,0.00,8.5,14.4,"00:30:32",1
"18/10/31","00:50",0.0,10.1,89.5,1012.1,308.8,1.6,2.1,335.6,0.00,8.5,14.4,"00:41:28",1
"18/10/31","01:00",0.0,10.1,89.2,1012.6,314.8,1.3,2.7,327.6,0.00,8.4,14.5,"00:54:24",1
"18/10/31","01:10",0.0,10.4,89.4,1012.3,322.7,1.8,3.1,326.8,0.00,8.8,14.4,"01:05:12",1
"18/10/31","01:20",0.0,10.8,87.9,1012.6,326.2,2.6,3.6,325.3,0.00,8.9,14.3,"01:10:56",1
"18/10/31","01:30",0.0,11.0,86.4,1012.3,327.3,2.5,3.6,336.2,0.00,8.9,14.5,"01:25:44",1
"18/10/31","01:40",0.0,11.0,85.3,1012.3,320.0,2.1,2.9,333.7,0.00,8.7,14.7,"01:33:28",1
"18/10/31","01:50",0.0,10.8,84.7,1012.8,323.3,1.6,2.6,325.5,0.00,8.4,14.4,"01:42:18",1
"18/10/31","02:00",0.0,10.8,85.3,1012.6,324.3,2.5,4.0,333.1,0.00,8.5,14.4,"01:56:16",1
"18/10/31","02:10",0.0,10.8,85.0,1012.6,328.9,2.7,4.2,318.1,0.00,8.4,14.3,"02:01:44",1
"18/10/31","02:20",0.0,10.9,84.4,1012.6,328.3,3.6,5.2,335.7,0.00,8.4,14.4,"02:17:06",1
"18/10/31","02:30",0.0,10.8,83.8,1012.6,321.7,3.4,5.4,332.1,0.00,8.2,14.6,"02:20:24",1
"18/10/31","02:40",0.0,10.5,83.2,1012.3,302.1,2.0,3.4,323.9,0.00,7.8,14.3,"02:36:26",1
"18/10/31","02:50",0.0,10.4,84.7,1012.6,325.2,2.3,3.9,315.4,0.00,8.0,14.2,"02:42:00",1
"18/10/31","03:00",0.0,10.1,84.7,1012.1,340.9,1.7,2.8,329.7,0.00,7.7,14.2,"02:50:16",1
"18/10/31","03:10",0.0,9.8,86.3,1012.3,330.0,1.8,2.9,349.8,0.00,7.7,14.2,"03:09:36",1
"18/10/31","03:20",0.0,10.1,86.6,1012.3,332.5,2.2,4.0,331.0,0.00,8.0,14.1,"03:15:20",1
"18/10/31","03:30",0.0,10.2,86.5,1011.9,334.1,2.5,3.6,325.5,0.00,8.1,14.2,"03:25:36",1
"18/10/31","03:40",0.0,10.1,86.3,1012.1,327.3,2.8,3.9,338.1,0.00,8.0,14.2,"03:30:24",1
"18/10/31","03:50",0.0,10.2,86.3,1012.3,328.3,2.7,4.1,343.3,0.00,8.1,14.2,"03:48:48",1
"18/10/31","04:00",0.0,10.2,86.3,1012.3,331.3,2.7,4.1,341.0,0.00,8.1,14.1,"03:51:04",1
"18/10/31","04:10",0.0,10.4,85.4,1012.1,330.1,2.7,5.0,336.3,0.00,8.1,13.9,"04:06:48",1
"18/10/31","04:20",0.0,10.1,85.6,1011.9,325.2,2.7,4.5,311.1,0.00,7.8,14.2,"04:13:52",1
"18/10/31","04:30",0.0,9.8,86.2,1012.3,298.3,1.6,2.7,316.8,0.00,7.6,14.2,"04:22:08",1
"18/10/31","04:40",0.0,9.7,87.0,1012.3,321.9,1.7,2.2,321.6,0.00,7.7,14.1,"04:32:16",1
"18/10/31","04:50",0.0,9.7,87.4,1012.3,314.8,0.8,1.9,319.4,0.00,7.8,14.0,"04:46:48",1
"18/10/31","05:00",0.0,9.4,86.7,1012.3,304.0,1.6,2.9,323.0,0.00,7.3,14.0,"04:50:24",1
"18/10/31","05:10",0.0,8.9,87.3,1012.6,313.6,1.5,3.3,324.4,0.00,6.9,13.8,"05:02:24",1
"18/10/31","05:20",0.0,8.6,89.2,1012.1,307.8,1.6,2.6,327.9,0.00,7.0,14.0,"05:10:40",1
"18/10/31","05:30",0.0,8.5,90.3,1012.3,312.9,1.8,2.8,325.2,0.00,7.0,13.9,"05:23:12",1
"18/10/31","05:40",0.0,8.3,90.6,1012.1,313.9,1.5,2.2,321.0,0.00,6.9,13.8,"05:33:04",1
"18/10/31","05:50",0.0,8.2,92.0,1012.3,299.1,1.3,1.8,311.3,0.00,7.0,13.8,"05:45:28",1
"18/10/31","06:00",0.0,8.3,91.5,1012.6,312.0,0.8,1.8,314.3,0.00,7.0,13.7,"05:52:00",1
"18/10/31","06:10",0.0,7.9,92.3,1012.3,287.7,1.3,1.8,318.7,0.00,6.8,13.9,"06:09:20",1
"18/10/31","06:20",0.0,7.7,92.8,1012.1,298.0,1.5,2.0,316.9,0.00,6.6,13.7,"06:12:32",1
"18/10/31","06:30",0.0,7.9,93.6,1012.3,312.0,1.5,2.2,318.2,0.00,7.0,13.7,"06:21:44",1
"18/10/31","06:40",0.0,8.0,93.7,1011.9,291.4,0.7,1.4,260.1,0.00,7.1,13.7,"06:32:08",1
"18/10/31","06:50",0.0,7.9,93.7,1011.6,298.2,1.3,1.9,325.2,0.00,7.0,13.7,"06:46:48",1
"18/10/31","07:00",0.0,8.1,94.3,1012.1,299.4,1.5,2.1,325.3,0.00,7.3,13.7,"06:52:40",1
"18/10/31","07:10",0.0,8.2,94.5,1012.1,302.5,1.6,2.5,312.4,0.00,7.4,13.5,"07:03:20",1
"18/10/31","07:20",0.0,8.5,94.8,1012.3,306.6,1.6,2.7,304.6,0.00,7.8,13.7,"07:17:04",1
"18/10/31","07:30",0.0,9.0,94.3,1012.6,291.6,1.6,2.6,328.0,0.01,8.2,13.7,"07:29:28",1
"18/10/31","07:40",0.0,9.5,93.5,1012.3,302.9,1.8,3.2,321.6,0.02,8.5,13.8,"07:34:24",1
"18/10/31","07:50",0.0,10.0,92.5,1012.8,308.1,1.8,3.3,344.9,0.03,8.9,13.6,"07:40:24",1
"18/10/31","08:00",0.0,10.6,91.1,1013.0,309.3,2.0,2.7,319.1,0.05,9.2,13.7,"07:53:44",1
"18/10/31","08:10",0.0,11.0,88.6,1013.0,311.8,1.8,2.8,322.7,0.06,9.2,13.9,"08:01:04",1
"18/10/31","08:20",0.0,11.4,85.4,1013.3,312.1,1.5,2.6,329.2,0.06,9.1,13.9,"08:14:58",1
"18/10/31","08:30",0.0,11.9,82.2,1013.0,302.3,1.2,1.8,326.8,0.07,9.0,14.0,"08:20:50",1
"18/10/31","08:40",0.0,12.1,79.4,1013.3,279.0,1.2,2.2,290.2,0.08,8.7,14.2,"08:35:04",1
"18/10/31","08:50",0.0,12.5,77.1,1013.5,306.0,1.2,2.1,331.6,0.10,8.6,14.2,"08:41:12",1
"18/10/31","09:00",0.0,13.0,75.9,1014.0,296.1,1.1,1.8,316.1,0.11,8.9,14.2,"08:54:32",1
"18/10/31","09:10",0.0,13.1,73.3,1013.5,291.6,1.5,2.6,311.2,0.11,8.5,14.5,"09:09:44",1
"18/10/31","09:20",0.0,13.2,72.5,1013.5,278.4,1.3,2.5,324.4,0.11,8.4,14.3,"09:18:24",1
"18/10/31","09:30",0.0,13.5,72.4,1013.3,280.3,1.2,2.0,252.5,0.12,8.7,14.6,"09:20:24",1
"18/10/31","09:40",0.0,14.2,71.1,1013.5,284.9,1.5,2.6,332.1,0.18,9.1,14.5,"09:34:40",1
"18/10/31","09:50",0.0,14.3,68.1,1013.5,268.3,1.6,4.0,222.2,0.30,8.5,14.7,"09:49:04",1
"18/10/31","10:00",0.0,14.7,67.7,1013.3,269.2,1.8,3.7,333.1,0.26,8.8,15.0,"09:58:48",1
"18/10/31","10:10",0.0,14.9,66.4,1013.3,284.7,1.3,2.9,281.1,0.26,8.7,15.1,"10:01:52",1
"18/10/31","10:20",0.0,14.8,66.7,1013.5,275.5,1.7,3.5,326.0,0.21,8.7,15.1,"10:16:56",1
"18/10/31","10:30",0.0,15.1,64.2,1012.8,287.0,1.7,2.9,335.5,0.24,8.4,15.4,"10:28:56",1
"18/10/31","10:40",0.0,15.1,64.3,1013.0,271.5,1.7,3.3,249.2,0.24,8.5,15.7,"10:32:48",1
"18/10/31","10:50",0.0,15.1,63.3,1012.8,288.3,1.7,3.5,285.5,0.31,8.2,15.6,"10:47:20",1
"18/10/31","11:00",0.0,16.0,60.6,1012.8,284.1,2.0,4.0,277.3,0.43,8.4,15.8,"10:52:24",1
"18/10/31","11:10",0.0,16.3,58.5,1013.0,286.2,2.1,4.7,318.2,0.42,8.2,16.0,"11:00:56",1
"18/10/31","11:20",0.0,16.2,56.9,1012.6,294.2,2.0,4.3,309.3,0.32,7.7,16.2,"11:14:40",1
"18/10/31","11:30",0.0,17.0,55.8,1012.3,284.4,2.0,4.5,321.9,0.45,8.2,16.4,"11:24:40",1
"18/10/31","11:40",0.0,16.9,52.3,1012.3,274.4,2.3,4.3,251.4,0.41,7.1,16.5,"11:34:24",1
"18/10/31","11:50",0.0,17.2,51.8,1012.1,278.3,2.6,5.6,242.8,0.42,7.3,16.8,"11:42:16",1
"18/10/31","12:00",0.0,17.0,53.5,1011.6,301.8,2.8,7.5,321.6,0.37,7.5,16.9,"11:55:28",1
"18/10/31","12:10",0.0,16.9,54.7,1011.6,317.5,2.5,5.6,331.3,0.31,7.8,17.0,"12:04:48",1
"18/10/31","12:20",0.0,16.7,54.6,1011.6,304.6,2.2,5.6,330.0,0.30,7.6,17.2,"12:15:28",1
"18/10/31","12:30",0.0,16.8,56.0,1011.6,280.5,1.7,4.7,255.1,0.27,8.0,17.2,"12:21:04",1
"18/10/31","12:40",0.0,16.5,55.0,1011.4,295.4,2.0,4.4,341.5,0.23,7.5,17.3,"12:38:48",1
"18/10/31","12:50",0.0,16.2,55.5,1011.9,297.9,1.7,2.8,248.8,0.18,7.3,17.4,"12:43:20",1
"18/10/31","13:00",0.0,16.0,56.1,1011.4,290.5,2.0,4.3,329.1,0.13,7.3,17.3,"12:59:44",1
"18/10/31","13:10",0.0,16.0,56.0,1011.6,332.2,2.7,5.4,342.4,0.17,7.3,17.3,"13:05:12",1
"18/10/31","13:20",0.0,16.0,57.3,1011.9,279.0,1.3,2.9,259.4,0.17,7.6,17.4,"13:19:44",1
"18/10/31","13:30",0.0,16.6,56.5,1012.1,281.1,1.8,4.2,343.5,0.23,8.0,17.4,"13:28:40",1
"18/10/31","13:40",0.0,16.6,54.3,1011.6,298.8,2.8,6.5,312.3,0.37,7.4,17.6,"13:36:48",1
"18/10/31","13:50",0.0,17.6,56.7,1011.6,281.4,1.7,3.7,335.3,0.37,9.0,17.6,"13:41:52",1
"18/10/31","14:00",0.0,17.1,55.1,1011.9,279.9,2.3,5.1,336.0,0.36,8.1,17.7,"13:52:56",1
"18/10/31","14:10",0.0,16.1,57.2,1011.9,277.5,2.2,4.9,354.0,0.20,7.7,17.7,"14:08:32",1
"18/10/31","14:20",0.0,16.1,57.6,1011.6,298.8,1.8,3.3,8.5,0.11,7.8,17.8,"14:13:12",1
"18/10/31","14:30",0.0,15.7,58.6,1012.1,322.1,2.6,5.8,342.0,0.05,7.7,17.9,"14:27:20",1
"18/10/31","14:40",0.0,15.6,59.8,1012.1,312.8,2.0,3.5,309.9,0.12,7.9,17.7,"14:35:04",1
"18/10/31","14:50",0.0,15.6,60.1,1012.3,332.5,3.0,5.5,335.6,0.14,7.9,18.0,"14:41:20",1
"18/10/31","15:00",0.0,15.1,60.7,1012.3,331.4,2.8,4.8,330.2,0.11,7.6,17.4,"14:59:12",1
"18/10/31","15:10",0.0,14.9,62.4,1012.8,326.6,2.8,5.0,327.0,0.10,7.8,17.6,"15:01:28",1
"18/10/31","15:20",0.0,15.1,61.2,1012.6,327.4,2.5,4.9,357.6,0.14,7.7,17.3,"15:12:32",1
"18/10/31","15:30",0.0,15.3,62.3,1012.8,314.1,1.7,3.3,249.0,0.12,8.2,17.4,"15:22:00",1
"18/10/31","15:40",0.0,15.2,61.5,1013.0,300.1,1.7,3.9,325.2,0.10,7.9,17.5,"15:31:12",1
"18/10/31","15:50",0.0,14.7,61.6,1013.3,317.0,2.7,6.5,342.5,0.05,7.4,17.3,"15:47:20",1
"18/10/31","16:00",0.0,14.3,64.2,1013.0,327.7,3.6,8.3,338.6,0.03,7.7,17.2,"15:55:44",1
"18/10/31","16:10",0.0,14.2,65.0,1013.5,313.7,2.7,5.4,336.4,0.03,7.8,17.2,"16:01:20",1
"18/10/31","16:20",0.0,14.1,65.4,1013.3,327.1,2.5,4.2,328.3,0.02,7.8,17.0,"16:12:16",1
"18/10/31","16:30",0.0,14.0,66.4,1013.8,324.2,2.5,4.4,333.8,0.02,7.9,17.2,"16:23:44",1
"18/10/31","16:40",0.0,13.7,67.0,1013.0,329.5,2.1,5.1,342.1,0.02,7.7,17.1,"16:39:20",1
"18/10/31","16:50",0.0,13.6,68.1,1013.3,329.8,2.1,4.0,318.5,0.01,7.9,16.8,"16:46:48",1
"18/10/31","17:00",0.0,13.4,68.8,1013.3,318.8,1.5,2.4,302.2,0.00,7.8,16.9,"16:53:36",1
"18/10/31","17:10",0.0,13.1,69.4,1013.5,328.4,1.3,2.6,337.5,0.00,7.7,16.6,"17:09:52",1
"18/10/31","17:20",0.0,12.9,70.4,1013.5,335.0,1.6,2.6,331.9,0.00,7.7,16.4,"17:14:16",1
"18/10/31","17:30",0.0,12.4,71.7,1013.3,328.1,1.6,2.0,327.4,0.00,7.5,16.5,"17:21:34",1
"18/10/31","17:40",0.0,11.8,73.8,1013.5,316.0,1.5,2.1,329.2,0.00,7.3,16.3,"17:39:32",1
"18/10/31","17:50",0.0,11.3,76.8,1013.3,303.2,1.6,1.9,322.5,0.00,7.4,16.3,"17:40:10",1
"18/10/31","18:00",0.0,11.0,79.7,1013.5,309.0,1.6,2.0,339.5,0.00,7.7,15.9,"17:54:16",1
"18/10/31","18:10",0.0,10.7,81.5,1013.8,299.3,1.5,2.0,308.5,0.00,7.7,16.1,"18:08:32",1
"18/10/31","18:20",0.0,10.7,82.9,1013.8,314.8,1.8,2.4,330.2,0.00,8.0,16.0,"18:12:00",1
"18/10/31","18:30",0.0,10.5,84.3,1013.5,300.7,1.8,2.6,321.3,0.00,8.0,15.6,"18:29:44",1
"18/10/31","18:40",0.0,10.6,84.9,1013.5,313.2,2.3,3.9,336.1,0.00,8.2,15.6,"18:38:56",1
"18/10/31","18:50",0.0,10.8,84.4,1013.3,312.2,2.3,3.9,317.0,0.00,8.3,15.6,"18:48:32",1
"18/10/31","19:00",0.0,10.9,83.9,1013.5,311.3,2.0,2.6,327.2,0.00,8.3,15.6,"18:52:40",1
"18/10/31","19:10",0.0,11.3,83.0,1014.0,322.2,2.3,3.7,318.7,0.00,8.6,15.4,"19:09:20",1
"18/10/31","19:20",0.0,11.4,81.5,1013.8,316.9,2.3,4.2,316.4,0.00,8.4,15.3,"19:11:46",1
"18/10/31","19:30",0.0,11.6,81.8,1013.8,304.6,2.5,4.5,338.4,0.00,8.6,15.4,"19:26:24",1
"18/10/31","19:40",0.0,11.6,81.0,1014.0,315.3,3.0,5.6,330.2,0.00,8.5,15.3,"19:36:50",1
"18/10/31","19:50",0.0,11.6,80.6,1014.0,307.7,2.2,4.2,316.0,0.00,8.4,15.2,"19:42:12",1
"18/10/31","20:00",0.0,11.5,80.5,1014.0,297.9,1.7,3.7,318.1,0.00,8.3,15.1,"19:53:48",1
"18/10/31","20:10",0.0,11.5,80.5,1014.0,290.9,1.6,2.2,282.1,0.00,8.3,15.1,"20:00:08",1
"18/10/31","20:20",0.0,11.7,80.4,1014.5,283.5,1.7,2.8,299.5,0.00,8.5,15.1,"20:10:24",1
"18/10/31","20:30",0.0,11.8,79.4,1014.2,302.0,1.8,2.9,320.5,0.00,8.4,15.2,"20:23:32",1
"18/10/31","20:40",0.0,12.0,77.9,1013.8,310.3,1.8,3.2,310.6,0.00,8.3,15.1,"20:30:16",1
"18/10/31","20:50",0.0,11.6,78.6,1014.0,326.4,2.0,3.2,337.6,0.00,8.1,15.1,"20:49:22",1
"18/10/31","21:00",0.0,11.2,79.3,1014.2,330.9,2.0,4.0,345.0,0.00,7.8,14.8,"20:57:00",1
"18/10/31","21:10",0.0,11.0,80.8,1014.2,334.3,2.1,3.1,332.4,0.00,7.9,14.8,"21:03:14",1
"18/10/31","21:20",0.0,10.7,81.1,1014.0,328.2,1.7,2.9,351.6,0.00,7.6,14.8,"21:17:28",1
"18/10/31","21:30",0.0,10.6,82.5,1013.8,325.3,1.5,2.2,327.5,0.00,7.8,14.8,"21:27:44",1
"18/10/31","21:40",0.0,11.0,82.6,1014.2,291.7,1.8,4.4,240.8,0.00,8.2,14.9,"21:36:48",1
"18/10/31","21:50",0.0,11.2,81.1,1014.5,289.3,2.0,3.1,334.3,0.00,8.1,14.8,"21:49:44",1
"18/10/31","22:00",0.0,10.7,80.4,1014.5,340.1,1.6,2.6,0.1,0.00,7.5,14.7,"21:52:44",1
"18/10/31","22:10",0.0,9.8,82.6,1014.5,294.3,1.6,2.1,322.3,0.00,7.0,14.5,"22:04:32",1
"18/10/31","22:20",0.0,9.3,85.7,1014.7,311.6,1.6,2.0,321.1,0.00,7.1,14.5,"22:14:56",1
"18/10/31","22:30",0.0,9.4,86.1,1014.7,332.3,2.0,3.4,339.2,0.00,7.2,14.6,"22:26:08",1
"18/10/31","22:40",0.0,8.8,86.9,1014.2,317.9,1.7,2.8,313.4,0.00,6.8,14.3,"22:33:20",1
"18/10/31","22:50",0.0,8.5,88.6,1014.5,314.0,1.6,2.6,320.1,0.00,6.8,14.2,"22:45:04",1
"18/10/31","23:00",0.0,8.9,90.9,1014.2,301.7,1.6,2.7,323.3,0.00,7.5,14.2,"22:53:04",1
"18/10/31","23:10",0.0,9.7,90.1,1014.2,300.7,2.1,3.6,311.4,0.00,8.2,14.4,"23:03:12",1
"18/10/31","23:20",0.0,10.1,87.9,1014.5,334.9,2.6,5.6,345.9,0.00,8.2,14.2,"23:14:00",1
"18/10/31","23:30",0.0,9.5,87.9,1014.5,330.0,1.5,3.1,336.8,0.00,7.6,14.0,"23:20:16",1
"18/10/31","23:40",0.0,9.5,88.9,1014.5,325.3,1.3,2.2,322.6,0.00,7.8,14.1,"23:34:00",1
"18/10/31","23:50",0.0,9.6,88.3,1014.5,358.5,1.3,3.7,334.0,0.00,7.8,13.9,"23:49:20",1
"18/10/31","24:00",0.0,9.7,89.2,1014.5,338.9,1.2,2.6,328.8,0.00,8.0,14.0,"23:54:24",1
